Weather History for Andover, NJ

Change the Weather History Date:

Saturday, January 21, 2012

  Actual Average (KFWN) Record (KFWN)
Temperature  
Mean Temperature 20 °F -  
Max Temperature 24 °F 33 °F 59 °F (2006)
Min Temperature 15 °F 11 °F -20 °F (1961)
Degree Days  
Heating Degree Days 46    
Moisture  
Dew Point 15 °F    
Average Humidity 83    
Maximum Humidity 92    
Minimum Humidity 55    
Precipitation  
Precipitation 0.42 in - - ()
Sea Level Pressure  
Sea Level Pressure 30.18 in    
Wind  
Wind Speed 3 mph (NE)    
Max Wind Speed 8 mph    
Max Gust Speed 16 mph    
Averages and records for this station are not official NWS values.
T = Trace of Precipitation, MM = Missing Value Source: NWS Daily Summary

Daily Weather History Graph

Daily Weather History Graph

Search for Another Location

Airport:

Trip Planner

Search our weather history database for the weather conditions in past years. The results will help you decide how hot, cold, wet, or windy it might be!

Date:

Astronomy

Jan. 21, 2012 Rise Set
Actual Time 7:18 AM EST 5:01 PM EST
Civil Twilight 6:48 AM EST 5:31 PM EST
Nautical Twilight 6:15 AM EST 6:05 PM EST
Astronomical Twilight 5:42 AM EST 6:38 PM EST
Moon 5:48 AM EST 3:34 PM EST
Length of Visible Light 10h 42m
Length of Day
9h 43m
Waning Crescent, 3% of the Moon is Illuminated
Jan 21
Waning Crescent
Jan 23
New
Jan 30
First Quarter
Feb 7
Full
Feb 14
Last Quarter

Hourly Weather History & Observations

Time (EST) Temp. Windchill Dew Point Humidity Pressure Visibility Wind Dir Wind Speed Gust Speed Precip Events Conditions
12:54 AM 24.1 °F - 10.0 °F 55% 30.27 in - Calm Calm - N/A   Unknown
1:54 AM 21.0 °F - 18.0 °F 88% 30.27 in - Calm Calm - 0.01 in   Unknown
2:54 AM 21.0 °F - 18.0 °F 88% 30.24 in - Calm Calm - 0.02 in   Unknown
3:54 AM 19.9 °F - 18.0 °F 92% 30.19 in - Calm Calm - 0.06 in   Unknown
4:54 AM 19.9 °F 13.4 °F 17.1 °F 89% 30.16 in - NNE 4.6 mph - 0.05 in   Unknown
5:54 AM 19.0 °F 11.1 °F 16.0 °F 88% 30.14 in - Variable 5.8 mph - 0.02 in   Unknown
6:54 AM 18.0 °F 11.1 °F 15.1 °F 88% 30.13 in - NNE 4.6 mph - 0.04 in   Unknown
7:54 AM 17.1 °F 10.0 °F 14.0 °F 88% 30.13 in - NE 4.6 mph - 0.06 in   Unknown
8:54 AM 17.1 °F 8.7 °F 14.0 °F 88% 30.12 in - NNE 5.8 mph - 0.06 in   Unknown
9:54 AM 17.1 °F 8.7 °F 14.0 °F 88% 30.10 in - Variable 5.8 mph - 0.04 in   Unknown
10:54 AM 18.0 °F 9.8 °F 14.0 °F 84% 30.08 in - Variable 5.8 mph - 0.04 in   Unknown
11:54 AM 18.0 °F 9.8 °F 14.0 °F 84% 30.06 in - NNE 5.8 mph - 0.02 in   Unknown
12:54 PM 19.0 °F 9.0 °F 14.0 °F 81% 30.05 in - NNE 8.1 mph - N/A   Unknown
1:54 PM 19.9 °F 10.1 °F 15.1 °F 81% 30.06 in - NE 8.1 mph - N/A   Unknown
2:54 PM 21.0 °F 12.4 °F 16.0 °F 81% 30.08 in - Variable 6.9 mph 16.1 mph N/A   Unknown
3:54 PM 21.9 °F 14.5 °F 18.0 °F 85% 30.12 in - NE 5.8 mph - N/A   Unknown
4:54 PM 21.9 °F 14.5 °F 18.0 °F 85% 30.16 in - NE 5.8 mph - N/A   Unknown
5:54 PM 21.9 °F 12.5 °F 17.1 °F 82% 30.19 in - NE 8.1 mph - N/A   Unknown
6:54 PM 21.9 °F 13.4 °F 16.0 °F 78% 30.22 in - NE 6.9 mph - N/A   Unknown
7:54 PM 21.0 °F 11.4 °F 14.0 °F 74% 30.25 in - NNE 8.1 mph - N/A   Unknown
8:54 PM 19.0 °F 13.9 °F 12.9 °F 77% 30.29 in - Variable 3.5 mph - N/A   Unknown
9:54 PM 18.0 °F - 12.0 °F 78% 30.31 in - Calm Calm - N/A   Unknown
10:54 PM 15.1 °F - 10.9 °F 84% 30.33 in - Calm Calm - N/A   Unknown
11:54 PM 17.1 °F 7.6 °F 10.9 °F 77% 30.37 in - NE 6.9 mph - N/A   Unknown